• MPC Preparation (Info)

  • MPEC 2000-A22 : 2000 AG6

    The following Minor Planet Electronic Circular may be linked-to from your own Web pages, but must not otherwise be redistributed electronically.

    A form allowing access to any MPEC is at the bottom of this page.


    Read MPEC 2000-A21 Read MPEC 2000-A23


    M.P.E.C. 2000-A22                                Issued 2000 Jan. 6, 20:36 UT
    
         The Minor Planet Electronic Circulars contain information on unusual
             minor planets and routine data on comets.  They are published
       on behalf of Commission 20 of the International Astronomical Union by the
              Minor Planet Center, Smithsonian Astrophysical Observatory,
                              Cambridge, MA 02138, U.S.A.
    
                 Prepared using the Tamkin Foundation Computer Network
    
                 BMARSDEN@CFA.HARVARD.EDU or GWILLIAMS@CFA.HARVARD.EDU
              URL http://cfa-www.harvard.edu/iau/mpc.html  ISSN 1523-6714
    
                                       2000 AG6
    
    Observations:
         K00A06G* C2000 01 03.22557 05 05 51.28 +27 11 12.6          18.5        704
         K00A06G  C2000 01 03.24035 05 05 31.73 +27 09 37.1          18.8        704
         K00A06G  C2000 01 03.25513 05 05 12.22 +27 07 59.8          18.9        704
         K00A06G  C2000 01 03.26996 05 04 52.56 +27 06 21.0          19.1        704
         K00A06G tC2000 01 04.02087 04 48 52.04 +25 31 51.4                      046
         K00A06G tC2000 01 04.02164 04 48 50.83 +25 31 43.7                      046
         K00A06G tC2000 01 04.02306 04 48 48.97 +25 31 31.9                      046
         K00A06G tC2000 01 04.02383 04 48 47.84 +25 31 25.2                      046
         K00A06G tC2000 01 04.03235 04 48 35.55 +25 30 08.5          18.1 R      046
         K00A06G tC2000 01 04.03352 04 48 33.87 +25 29 57.5                      046
         K00A06G tC2000 01 04.03398 04 48 33.25 +25 29 53.6          17.8 R      046
         K00A06G tC2000 01 04.03461 04 48 32.37 +25 29 48.3                      046
         K00A06G tC2000 01 04.03556 04 48 30.99 +25 29 39.3          18.2 R      046
         K00A06G  C2000 01 04.15907 04 46 05.52 +25 14 40.0          18.7        704
         K00A06G  C2000 01 04.15942 04 46 04.93 +25 14 37.2          19.3        704
         K00A06G  C2000 01 04.17300 04 45 43.74 +25 12 41.7          18.6        704
         K00A06G  C2000 01 04.17366 04 45 42.69 +25 12 36.1          19.3        704
         K00A06G  C2000 01 04.17401 04 45 42.17 +25 12 32.9          19.6        704
         K00A06G  C2000 01 04.18756 04 45 20.88 +25 10 36.9          18.5        704
         K00A06G  C2000 01 04.18822 04 45 19.85 +25 10 30.0          18.9        704
         K00A06G  C2000 01 04.18857 04 45 19.27 +25 10 28.3          19.3        704
         K00A06G  C2000 01 04.20220 04 44 57.77 +25 08 29.1          18.5        704
         K00A06G  C2000 01 04.20287 04 44 56.78 +25 08 23.0          18.5        704
         K00A06G  C2000 01 04.20322 04 44 56.19 +25 08 20.3          19.2        704
         K00A06G  C2000 01 04.21687 04 44 34.64 +25 06 20.0          18.8        704
         K00A06G  C2000 01 05.14511 04 20 44.29 +22 25 05.7          18.7        704
         K00A06G  C2000 01 05.15968 04 20 16.80 +22 22 12.0          18.8        704
         K00A06G  C2000 01 05.17428 04 19 49.30 +22 19 16.3          18.1        704
         K00A06G  C2000 01 05.18880 04 19 21.85 +22 16 18.4          18.2        704
         K00A06G  C2000 01 05.20331 04 18 54.31 +22 13 18.8          18.2        704
         K00A06G  C2000 01 05.54635 04 08 34.93 +21 06 38.2          18.2 R      422
         K00A06G  C2000 01 05.54837404 08 30.91 +21 06 09.2          17.3 R      422
         K00A06G  C2000 01 05.54932304 08 29.00 +21 05 54.4          18.1 R      422
         K00A06G  C2000 01 05.54976304 08 28.13 +21 05 49.5          17.6 R      422
         K00A06G  C2000 01 05.55267904 08 22.35 +21 05 08.5          18.0 R      422
         K00A06G  C2000 01 05.55342004 08 20.89 +21 04 56.9          17.6 R      422
         K00A06G  C2000 01 05.80669 04 00 48.10 +19 53 45.1          17.6 R      046
         K00A06G  C2000 01 05.80709 04 00 47.22 +19 53 39.4                      046
         K00A06G  C2000 01 05.80771 04 00 45.94 +19 53 29.7          17.8 R      046
         K00A06G  C2000 01 05.80811 04 00 45.10 +19 53 23.3                      046
         K00A06G  C2000 01 05.81617 04 00 30.58 +19 51 13.9                      611
         K00A06G  C2000 01 05.81682 04 00 29.51 +19 51 06.7                      611
         K00A06G  C2000 01 05.82672 04 00 08.86 +19 48 36.4                      611
         K00A06G  C2000 01 05.82880 04 00 04.74 +19 48 06.2                      611
         K00A06G  C2000 01 05.82998 04 00 02.04 +19 47 45.5                      611
         K00A06G  C2000 01 05.83122 03 59 59.72 +19 47 29.7                      611
         K00A06G  C2000 01 05.83539 03 59 50.77 +19 46 24.7                      611
         K00A06G  C2000 01 05.87725 03 58 21.04 +19 35 38.7                      557
         K00A06G  C2000 01 05.87772 03 58 20.07 +19 35 31.7                      557
         K00A06G  C2000 01 05.87819 03 58 19.06 +19 35 24.7                      557
         K00A06G  C2000 01 05.87867 03 58 18.18 +19 35 16.7                      557
         K00A06G  C2000 01 05.87962 03 58 16.06 +19 35 02.2                      557
         K00A06G  C2000 01 05.88009 03 58 15.14 +19 34 54.4          18.0 V      557
         K00A06G  C2000 01 05.90624 03 57 19.21 +19 28 12.6                      118
         K00A06G  C2000 01 05.90793 03 57 15.70 +19 27 45.6                      118
         K00A06G  C2000 01 05.90848 03 57 14.50 +19 27 36.1          17.4 R      118
         K00A06G  C2000 01 06.28242 03 44 32.61 +17 46 55.4                      651
         K00A06G  C2000 01 06.28334 03 44 30.53 +17 46 38.1          18.3 V      651
         K00A06G  C2000 01 06.28497 03 44 26.96 +17 46 09.7                      651
    
    Observer details:
    046 Klet.  Observers M. Tichy, Z. Moravec.  0.57-m f/5.2 reflector + CCD.
    118 Modra.  Observers A. Galad, P. Koleny.  0.6-m f/5.5 reflector + CCD.
    422 Loomberah.  Observer G. J. Garradd.  0.45-m f/5.4 reflector + CCD.
    557 Ondrejov.  Observers P. Pravec, P. Kusnirak.  0.65-m f/3.6 reflector + CCD.
    611 Starkenburg.  Observers M. Busch, R. Kresken.  0.45-m f/4.4 reflector + CCD.
    651 Grasslands Observatory, Tucson.  Observer J. E. McGaha.  0.62-m f/5.1
        reflector + CCD.
    704 Lincoln Laboratory ETS, New Mexico.  Observers M. Blythe, F. Shelly,
        M. Bezpalko, M. Elowitz, R. Huber.  Measurers J. Stuart, H. Viggh,
        R. Sayer, J. B. Evans.  1.0-m f/2.15 reflector + CCD.
    
    Orbital elements:
    2000 AG6
    Epoch 2000 Feb. 26.0 TT = JDT 2451600.5                 Williams
    M 336.00928              (2000.0)            P               Q
    n   0.96332809     Peri.  275.53878     -0.94305448     +0.32998149
    a   1.0153597      Node   283.73418     -0.28552909     -0.86774138
    e   0.1903169      Incl.    2.47554     -0.17064991     -0.37166801
    P   1.02           H   25.2           G   0.15           U   6
    From 54 observations 2000 Jan. 3-6, mean residual 0".69.
    
    Ephemeris:
    2000 AG6                 a,e,i = 1.02, 0.19, 2                   q = 0.8221
    Date    TT    R. A. (2000) Decl.     Delta      r     Elong.  Phase     V
    1999 12 28    06 18.47   +32 10.3    0.042    1.025   171.0     8.6    18.9
    1999 12 29    06 11.24   +31 49.7    0.038    1.021   170.5     9.1    18.8
    1999 12 30    06 02.81   +31 23.0    0.035    1.018   169.3    10.4    18.6
    1999 12 31    05 52.89   +30 48.0    0.032    1.015   167.3    12.3    18.5
    2000 01 01    05 41.14   +30 01.7    0.029    1.012   164.5    15.0    18.4
    2000 01 02    05 27.09   +28 59.7    0.026    1.008   161.0    18.5    18.3
    2000 01 03    05 10.16   +27 35.1    0.024    1.005   156.6    22.9    18.2
    2000 01 04    04 49.63   +25 38.3    0.021    1.002   151.1    28.3    18.1
    2000 01 05    04 24.67   +22 55.4    0.019    0.999   144.2    35.2    18.0
    2000 01 06    03 54.47   +19 08.3    0.017    0.995   135.5    43.8    18.0
    2000 01 07    03 18.59   +13 58.7    0.015    0.992   124.9    54.4    18.0
    2000 01 08    02 37.42   +07 20.6    0.014    0.989   112.1    67.2    18.2
    2000 01 09    01 52.75   -00 20.8    0.013    0.985    97.9    81.4    18.6
    2000 01 10    01 07.59   -08 06.0    0.014    0.982    83.5    95.7    19.3
    2000 01 11    00 25.14   -14 52.1    0.015    0.979    70.5   108.7    20.1
    2000 01 12    23 47.56   -20 09.1    0.016    0.975    59.4   119.8    21.0
    
    Gareth V. Williams           (C) Copyright 2000 MPC           M.P.E.C. 2000-A22
    

    Read MPEC 2000-A21 Read MPEC 2000-A23


    MPEC number:

    Enter an MPEC number in one of the following forms:

    • 1997-B01 (the full form)
    • J97B01 (the packed version of the full form)
    • B01 (the abbreviated form)